Time,TemperatureF,DewpointF,PressureIn,WindDirection,WindDirectionDegrees,WindSpeedMPH,WindSpeedGustMPH,Humidity,HourlyPrecipIn,Conditions,Clouds,dailyrainin,SolarRadiationWatts/m^2,SoftwareType,DateUTC
2013-01-09 00:01:00,37.0,17.0,-100.00,SW,234,3.0,4.0,43,0.00,,,0.00,0.000000,,2013-01-09 05:01:00,
2013-01-09 00:22:00,37.0,17.0,-100.00,SW,234,3.0,4.0,43,0.00,,,0.00,0.000000,,2013-01-09 05:22:00,
2013-01-09 00:33:00,37.0,17.0,-100.00,SW,234,3.0,4.0,43,0.00,,,0.00,0.000000,,2013-01-09 05:33:00,
2013-01-09 00:43:00,37.0,17.0,-100.00,SW,234,3.0,4.0,43,0.00,,,0.00,0.000000,,2013-01-09 05:43:00,
2013-01-09 00:53:00,37.0,17.0,-100.00,SW,234,3.0,4.0,43,0.00,,,0.00,0.000000,,2013-01-09 05:53:00,
2013-01-09 01:01:00,38.0,17.0,-100.00,SW,228,3.0,5.0,42,0.00,,,0.00,0.000000,,2013-01-09 06:01:00,
2013-01-09 01:22:00,38.0,17.0,-100.00,SW,228,3.0,5.0,42,0.00,,,0.00,0.000000,,2013-01-09 06:22:00,
2013-01-09 01:32:00,38.0,17.0,-100.00,SW,228,3.0,5.0,42,0.00,,,0.00,0.000000,,2013-01-09 06:32:00,
2013-01-09 01:42:00,38.0,17.0,-100.00,SW,228,3.0,5.0,42,0.00,,,0.00,0.000000,,2013-01-09 06:42:00,
2013-01-09 01:53:00,38.0,17.0,-100.00,SW,228,3.0,5.0,42,0.00,,,0.00,0.000000,,2013-01-09 06:53:00,
2013-01-09 02:01:00,34.0,17.0,-100.00,NE,40,2.0,5.0,49,0.00,,,0.00,0.000000,,2013-01-09 07:01:00,
2013-01-09 02:32:00,34.0,17.0,-100.00,NE,40,2.0,5.0,49,0.00,,,0.00,0.000000,,2013-01-09 07:32:00,
2013-01-09 02:42:00,34.0,17.0,-100.00,NE,40,2.0,5.0,49,0.00,,,0.00,0.000000,,2013-01-09 07:42:00,
2013-01-09 02:52:00,34.0,17.0,-100.00,NE,40,2.0,5.0,49,0.00,,,0.00,0.000000,,2013-01-09 07:52:00,
2013-01-09 03:01:00,34.0,17.0,-100.00,SSW,199,5.0,7.0,49,0.00,,,0.00,0.000000,,2013-01-09 08:01:00,
2013-01-09 03:22:00,34.0,17.0,-100.00,SSW,199,5.0,7.0,49,0.00,,,0.00,0.000000,,2013-01-09 08:22:00,
2013-01-09 03:32:00,34.0,17.0,-100.00,SSW,199,5.0,7.0,49,0.00,,,0.00,0.000000,,2013-01-09 08:32:00,
2013-01-09 03:43:00,34.0,17.0,-100.00,SSW,199,5.0,7.0,49,0.00,,,0.00,0.000000,,2013-01-09 08:43:00,
2013-01-09 03:53:00,34.0,17.0,-100.00,SSW,199,5.0,7.0,49,0.00,,,0.00,0.000000,,2013-01-09 08:53:00,
2013-01-09 04:01:00,34.0,18.0,-100.00,SW,219,4.0,7.0,52,0.00,,,0.00,0.000000,,2013-01-09 09:01:00,
2013-01-09 04:22:00,34.0,18.0,-100.00,SW,219,4.0,7.0,52,0.00,,,0.00,0.000000,,2013-01-09 09:22:00,
2013-01-09 04:32:00,34.0,18.0,-100.00,SW,219,4.0,7.0,52,0.00,,,0.00,0.000000,,2013-01-09 09:32:00,
2013-01-09 04:42:00,34.0,18.0,-100.00,SW,219,4.0,7.0,52,0.00,,,0.00,0.000000,,2013-01-09 09:42:00,
2013-01-09 04:53:00,34.0,18.0,-100.00,SW,219,4.0,7.0,52,0.00,,,0.00,0.000000,,2013-01-09 09:53:00,
2013-01-09 05:01:00,36.0,19.0,-100.00,SW,223,5.0,9.0,49,0.00,,,0.00,0.000000,,2013-01-09 10:01:00,
2013-01-09 05:32:00,36.0,19.0,-100.00,SW,223,5.0,9.0,49,0.00,,,0.00,0.000000,,2013-01-09 10:32:00,
2013-01-09 05:42:00,36.0,19.0,-100.00,SW,223,5.0,9.0,49,0.00,,,0.00,0.000000,,2013-01-09 10:42:00,
2013-01-09 05:52:00,36.0,19.0,-100.00,SW,223,5.0,9.0,49,0.00,,,0.00,0.000000,,2013-01-09 10:52:00,
2013-01-09 06:01:00,36.0,21.0,-100.00,SSW,211,5.0,9.0,55,0.00,,,0.00,0.000000,,2013-01-09 11:01:00,
2013-01-09 06:33:00,36.0,21.0,-100.00,SSW,211,5.0,9.0,55,0.00,,,0.00,0.000000,,2013-01-09 11:33:00,
2013-01-09 06:43:00,36.0,21.0,-100.00,SSW,211,5.0,9.0,55,0.00,,,0.00,0.000000,,2013-01-09 11:43:00,
2013-01-09 06:53:00,36.0,21.0,-100.00,SSW,211,5.0,9.0,55,0.00,,,0.00,0.000000,,2013-01-09 11:53:00,
2013-01-09 07:01:00,37.0,24.0,-100.00,SSW,206,5.0,9.0,60,0.00,,,0.00,0.000000,,2013-01-09 12:01:00,
2013-01-09 07:23:00,37.0,24.0,-100.00,SSW,206,5.0,9.0,60,0.00,,,0.00,0.000000,,2013-01-09 12:23:00,
2013-01-09 07:33:00,37.0,24.0,-100.00,SSW,206,5.0,9.0,60,0.00,,,0.00,0.000000,,2013-01-09 12:33:00,
2013-01-09 07:43:00,37.0,24.0,-100.00,SSW,206,5.0,9.0,60,0.00,,,0.00,0.000000,,2013-01-09 12:43:00,
2013-01-09 07:53:00,37.0,24.0,-100.00,SSW,206,5.0,9.0,60,0.00,,,0.00,0.000000,,2013-01-09 12:53:00,
2013-01-09 08:01:00,38.0,27.0,-100.00,SW,219,8.0,12.0,63,0.00,,,0.00,9.000000,,2013-01-09 13:01:00,
2013-01-09 08:23:00,38.0,27.0,-100.00,SW,219,8.0,12.0,63,0.00,,,0.00,9.000000,,2013-01-09 13:23:00,
2013-01-09 08:33:00,38.0,27.0,-100.00,SW,219,8.0,12.0,63,0.00,,,0.00,9.000000,,2013-01-09 13:33:00,
2013-01-09 08:43:00,38.0,27.0,-100.00,SW,219,8.0,12.0,63,0.00,,,0.00,9.000000,,2013-01-09 13:43:00,
2013-01-09 08:53:00,38.0,27.0,-100.00,SW,219,8.0,12.0,63,0.00,,,0.00,9.000000,,2013-01-09 13:53:00,
2013-01-09 09:01:00,42.0,31.0,-100.00,SW,229,7.0,11.0,66,0.00,,,0.00,73.000000,,2013-01-09 14:01:00,
2013-01-09 09:23:00,42.0,31.0,-100.00,SW,229,7.0,11.0,66,0.00,,,0.00,73.000000,,2013-01-09 14:23:00,
2013-01-09 09:33:00,42.0,31.0,-100.00,SW,229,7.0,11.0,66,0.00,,,0.00,73.000000,,2013-01-09 14:33:00,
2013-01-09 09:43:00,42.0,31.0,-100.00,SW,229,7.0,11.0,66,0.00,,,0.00,73.000000,,2013-01-09 14:43:00,
2013-01-09 09:53:00,42.0,31.0,-100.00,SW,229,7.0,11.0,66,0.00,,,0.00,73.000000,,2013-01-09 14:53:00,
2013-01-09 10:01:00,46.0,37.0,-100.00,SW,229,6.0,11.0,71,0.00,,,0.00,149.000000,,2013-01-09 15:01:00,
2013-01-09 10:23:00,46.0,37.0,-100.00,SW,229,6.0,11.0,71,0.00,,,0.00,149.000000,,2013-01-09 15:23:00,
2013-01-09 10:33:00,46.0,37.0,-100.00,SW,229,6.0,11.0,71,0.00,,,0.00,149.000000,,2013-01-09 15:33:00,
2013-01-09 10:43:00,46.0,37.0,-100.00,SW,229,6.0,11.0,71,0.00,,,0.00,149.000000,,2013-01-09 15:43:00,
2013-01-09 10:53:00,46.0,37.0,-100.00,SW,229,6.0,11.0,71,0.00,,,0.00,149.000000,,2013-01-09 15:53:00,
2013-01-09 11:01:00,47.0,39.0,-100.00,WSW,254,5.0,11.0,75,0.00,,,0.00,240.000000,,2013-01-09 16:01:00,
2013-01-09 11:23:00,47.0,39.0,-100.00,WSW,254,5.0,11.0,75,0.00,,,0.00,240.000000,,2013-01-09 16:23:00,
2013-01-09 11:34:00,47.0,39.0,-100.00,WSW,254,5.0,11.0,75,0.00,,,0.00,240.000000,,2013-01-09 16:34:00,
2013-01-09 11:43:00,47.0,39.0,-100.00,WSW,254,5.0,11.0,75,0.00,,,0.00,240.000000,,2013-01-09 16:43:00,
2013-01-09 11:53:00,47.0,39.0,-100.00,WSW,254,5.0,11.0,75,0.00,,,0.00,240.000000,,2013-01-09 16:53:00,
2013-01-09 12:01:00,50.0,39.0,-100.00,WSW,251,6.0,11.0,67,0.00,,,0.00,449.000000,,2013-01-09 17:01:00,
2013-01-09 12:23:00,50.0,39.0,-100.00,WSW,251,6.0,11.0,67,0.00,,,0.00,449.000000,,2013-01-09 17:23:00,
2013-01-09 12:33:00,50.0,39.0,-100.00,WSW,251,6.0,11.0,67,0.00,,,0.00,449.000000,,2013-01-09 17:33:00,
2013-01-09 12:43:00,50.0,39.0,-100.00,WSW,251,6.0,11.0,67,0.00,,,0.00,449.000000,,2013-01-09 17:43:00,
2013-01-09 12:53:00,50.0,39.0,-100.00,WSW,251,6.0,11.0,67,0.00,,,0.00,449.000000,,2013-01-09 17:53:00,
2013-01-09 13:01:00,47.0,41.0,-100.00,West,274,3.0,11.0,79,0.00,,,0.00,172.000000,,2013-01-09 18:01:00,
2013-01-09 13:24:00,47.0,41.0,-100.00,West,274,3.0,11.0,79,0.00,,,0.00,172.000000,,2013-01-09 18:24:00,
2013-01-09 13:33:00,47.0,41.0,-100.00,West,274,3.0,11.0,79,0.00,,,0.00,172.000000,,2013-01-09 18:33:00,
2013-01-09 13:43:00,47.0,41.0,-100.00,West,274,3.0,11.0,79,0.00,,,0.00,172.000000,,2013-01-09 18:43:00,
2013-01-09 13:53:00,47.0,41.0,-100.00,West,274,3.0,11.0,79,0.00,,,0.00,172.000000,,2013-01-09 18:53:00,
2013-01-09 15:01:00,47.0,42.0,-100.00,SSW,213,5.0,10.0,83,-99.99,,,0.00,159.000000,,2013-01-09 20:01:00,
2013-01-09 15:33:00,47.0,42.0,-100.00,SSW,213,5.0,10.0,83,-99.99,,,0.00,159.000000,,2013-01-09 20:33:00,
2013-01-09 15:43:00,47.0,42.0,-100.00,SSW,213,5.0,10.0,83,-99.99,,,0.00,159.000000,,2013-01-09 20:43:00,
2013-01-09 15:53:00,47.0,42.0,-100.00,SSW,213,5.0,10.0,83,-99.99,,,0.00,159.000000,,2013-01-09 20:53:00,
2013-01-09 16:01:00,46.0,43.0,-100.00,SW,228,7.0,10.0,88,0.00,,,0.00,77.000000,,2013-01-09 21:01:00,
2013-01-09 16:33:00,46.0,43.0,-100.00,SW,228,7.0,10.0,88,0.00,,,0.00,77.000000,,2013-01-09 21:33:00,
2013-01-09 16:43:00,46.0,43.0,-100.00,SW,228,7.0,10.0,88,0.00,,,0.00,77.000000,,2013-01-09 21:43:00,
2013-01-09 16:53:00,46.0,43.0,-100.00,SW,228,7.0,10.0,88,0.00,,,0.00,77.000000,,2013-01-09 21:53:00,
2013-01-09 17:01:00,45.0,43.0,-100.00,SW,229,8.0,12.0,93,0.00,,,0.00,19.000000,,2013-01-09 22:01:00,
2013-01-09 17:23:00,45.0,43.0,-100.00,SW,229,8.0,12.0,93,0.00,,,0.00,19.000000,,2013-01-09 22:23:00,
2013-01-09 17:33:00,45.0,43.0,-100.00,SW,229,8.0,12.0,93,0.00,,,0.00,19.000000,,2013-01-09 22:33:00,
2013-01-09 17:43:00,45.0,43.0,-100.00,SW,229,8.0,12.0,93,0.00,,,0.00,19.000000,,2013-01-09 22:43:00,
2013-01-09 17:53:00,45.0,43.0,-100.00,SW,229,8.0,12.0,93,0.00,,,0.00,19.000000,,2013-01-09 22:53:00,
2013-01-09 18:01:00,44.0,43.0,-100.00,SW,236,6.0,12.0,97,0.00,,,0.00,2.000000,,2013-01-09 23:01:00,
2013-01-09 18:33:00,44.0,43.0,-100.00,SW,236,6.0,12.0,97,0.00,,,0.00,2.000000,,2013-01-09 23:33:00,
2013-01-09 18:43:00,44.0,43.0,-100.00,SW,236,6.0,12.0,97,0.00,,,0.00,2.000000,,2013-01-09 23:43:00,
2013-01-09 18:53:00,44.0,43.0,-100.00,SW,236,6.0,12.0,97,0.00,,,0.00,2.000000,,2013-01-09 23:53:00,
2013-01-09 19:01:00,44.0,43.0,-100.00,NE,38,4.0,14.0,98,0.00,,,0.00,0.000000,,2013-01-10 00:01:00,
2013-01-09 19:33:00,44.0,43.0,-100.00,NE,38,4.0,14.0,98,0.00,,,0.00,0.000000,,2013-01-10 00:33:00,
2013-01-09 19:43:00,44.0,43.0,-100.00,NE,38,4.0,14.0,98,0.00,,,0.00,0.000000,,2013-01-10 00:43:00,
2013-01-09 19:53:00,44.0,43.0,-100.00,NE,38,4.0,14.0,98,0.00,,,0.00,0.000000,,2013-01-10 00:53:00,
2013-01-09 20:01:00,42.0,38.0,-100.00,NNE,26,6.0,14.0,86,0.00,,,0.00,0.000000,,2013-01-10 01:01:00,
2013-01-09 20:33:00,42.0,38.0,-100.00,NNE,26,6.0,14.0,86,0.00,,,0.00,0.000000,,2013-01-10 01:33:00,
2013-01-09 20:43:00,42.0,38.0,-100.00,NNE,26,6.0,14.0,86,0.00,,,0.00,0.000000,,2013-01-10 01:43:00,
2013-01-09 20:53:00,42.0,38.0,-100.00,NNE,26,6.0,14.0,86,0.00,,,0.00,0.000000,,2013-01-10 01:53:00,
2013-01-09 21:01:00,40.0,35.0,-100.00,NNE,13,6.0,16.0,82,0.00,,,0.00,0.000000,,2013-01-10 02:01:00,
2013-01-09 21:22:00,40.0,35.0,-100.00,NNE,13,6.0,16.0,82,0.00,,,0.00,0.000000,,2013-01-10 02:22:00,
2013-01-09 21:33:00,40.0,35.0,-100.00,NNE,13,6.0,16.0,82,0.00,,,0.00,0.000000,,2013-01-10 02:33:00,
2013-01-09 21:43:00,40.0,35.0,-100.00,NNE,13,6.0,16.0,82,0.00,,,0.00,0.000000,,2013-01-10 02:43:00,
2013-01-09 21:53:00,40.0,35.0,-100.00,NNE,13,6.0,16.0,82,0.00,,,0.00,0.000000,,2013-01-10 02:53:00,
2013-01-09 22:01:00,40.0,32.0,-100.00,NNE,18,7.0,16.0,73,0.00,,,0.00,0.000000,,2013-01-10 03:01:00,
2013-01-09 22:22:00,40.0,32.0,-100.00,NNE,18,7.0,16.0,73,0.00,,,0.00,0.000000,,2013-01-10 03:22:00,
2013-01-09 22:33:00,40.0,32.0,-100.00,NNE,18,7.0,16.0,73,0.00,,,0.00,0.000000,,2013-01-10 03:33:00,
2013-01-09 22:43:00,40.0,32.0,-100.00,NNE,18,7.0,16.0,73,0.00,,,0.00,0.000000,,2013-01-10 03:43:00,
2013-01-09 22:53:00,40.0,32.0,-100.00,NNE,18,7.0,16.0,73,0.00,,,0.00,0.000000,,2013-01-10 03:53:00,
2013-01-09 23:01:00,39.0,29.0,-100.00,North,10,5.0,15.0,66,0.00,,,0.00,0.000000,,2013-01-10 04:01:00,
2013-01-09 23:32:00,39.0,29.0,-100.00,North,10,5.0,15.0,66,0.00,,,0.00,0.000000,,2013-01-10 04:32:00,
2013-01-09 23:43:00,39.0,29.0,-100.00,North,10,5.0,15.0,66,0.00,,,0.00,0.000000,,2013-01-10 04:43:00,
2013-01-09 23:53:00,39.0,29.0,-100.00,North,10,5.0,15.0,66,0.00,,,0.00,0.000000,,2013-01-10 04:53:00,